Content
SEND FEEDBACK

Daily
Averages
Monthly
Summary
United States of America

CHICAGO, ILLINOIS


Home > North America > United States > Illinois
Elevation: 674 feet     Latitude: 41 59N     Longitude: 087 54W

WEATHER
 
SELECT A DAY
Number of Records: 195,010;   Date Range: 7/8/95 - 8/30/14
 
SHARE

PRINT THIS DATA

[ ← Previous Day ]
WEATHER ALMANAC - MARCH 27, 2013
[ Next Day → ]
[ °C ]   °F
Weather ElementAverageHighLow
Temperature37 °F42.1 °F (12:52 pm)28 °F (11:52 pm)
Dewpoint21.1 °F24.1 °F (1:52 am)19 °F (1:52 pm)
Humidity53.6 %72 % (11:52 pm)40 % (2:52 pm)
Barometer30.32 in30.35 in (10:52 pm)30.28 in (1:52 am)
Wind Speed6 mph10.4 mph (4:52 pm)
Weather ElementAverage
Visibility10 mi
Wind DirectionWNW (276.1 °)

Weather ElementTotal
Precipitation---
Heating Degree Days30 (Base 65)
Averaged from 23 records on March 27, 2013
WEATHER CONDITIONS BREAKOUT
WIND DIRECTION BREAKOUT
WEATHER BY HOUR - MARCH 27, 2013
[ °C ]   °F
Local TimeTemperatureDewpointHumidityBarometerVisibilityWind DirectionWind SpeedGust SpeedPrecipitationEventsConditions
1:52 AM34.0 °F24.1 °F67 %30.28 in10.0 miNW (310°)6.9 mphOvercast
2:52 AM35.1 °F21.9 °F59 %30.28 in10.0 miWNW (300°)8.1 mphOvercast
3:52 AM34.0 °F21.9 °F61 %30.28 in10.0 miNW (310°)6.9 mphOvercast
4:52 AM34.0 °F21.9 °F61 %30.28 in10.0 miNW (310°)8.1 mphOvercast
5:52 AM34.0 °F21.9 °F61 %30.28 in10.0 miNW (310°)6.9 mphOvercast
6:52 AM34.0 °F23.0 °F64 %30.30 in10.0 miNW (310°)6.9 mphOvercast
7:52 AM35.1 °F21.9 °F59 %30.32 in10.0 miNW (310°)6.9 mphOvercast
8:52 AM36.0 °F23.0 °F59 %30.33 in10.0 miNW (310°)6.9 mphOvercast
9:52 AM39.0 °F24.1 °F55 %30.33 in10.0 miWNW (300°)6.9 mphOvercast
10:52 AM39.9 °F24.1 °F53 %30.34 in10.0 miNorth (350°)5.8 mphOvercast
11:52 AM41.0 °F23.0 °F49 %30.34 in10.0 miNorth (350°)5.8 mphOvercast
12:52 PM42.1 °F21.0 °F43 %30.34 in10.0 miNNW (340°)4.6 mphOvercast
1:52 PM41.0 °F19.0 °F41 %30.33 in10.0 miNW (310°)8.1 mphOvercast
2:52 PM42.1 °F19.0 °F40 %30.32 in10.0 miNNW (330°)5.8 mphOvercast
3:52 PM42.1 °F19.0 °F40 %30.32 in10.0 miWNW (290°)9.2 mphOvercast
4:52 PM41.0 °F19.9 °F43 %30.32 in10.0 miNNW (330°)10.4 mphOvercast
5:52 PM39.9 °F19.0 °F43 %30.32 in10.0 miNNW (330°)6.9 mphOvercast
6:52 PM39.0 °F19.9 °F46 %30.32 in10.0 miNNW (330°)5.8 mphOvercast
7:52 PM37.9 °F19.9 °F48 %30.33 in10.0 miNW (320°)5.8 mphOvercast
8:52 PM37.0 °F19.0 °F48 %30.34 in10.0 miWNW (300°)4.6 mphOvercast
9:52 PM35.1 °F19.0 °F52 %30.34 in10.0 miCalmClear
10:52 PM28.9 °F19.9 °F69 %30.35 in10.0 miCalmClear
11:52 PM28.0 °F19.9 °F72 %30.35 in10.0 miCalmClear
Hourly data recorded from KPWK, located miles away from Chicago, Illinois







STORIES FROM OUR PARTNERS